GFSFLT2_700_temp_147.txt.gz
Temp
9 9 8 8 9 9 9 9 9 9 9 8 8 8 8 8 8 8 8 8 8 7 7 7 7 6 6 6 6 6 6 7
9 9 9 8 8 9 9 9 9 8 8 8 8 8 8 8 8 8 8 8 8 7 7 7 7 7 6 6 6 6 6 6
8 8 8 8 8 8 8 8 8 8 8 8 8 8 8 8 8 8 8 7 7 7 7 7 7 7 7 7 6 6 6 6
8 8 8 9 9 8 8 8 8 8 7 7 7 7 7 7 7 7 7 7 7 7 7 7 6 6 6 6 6 6 6 6
8 8 8 8 8 8 8 8 8 8 7 7 7 7 7 7 7 7 7 7 7 7 7 6 6 6 6 6 6 6 6 6
7 7 7 7 7 8 8 8 8 8 8 7 7 7 7 7 7 6 6 6 6 6 6 6 6 6 6 5 5 5 5 5
7 7 7 7 8 8 8 8 7 7 7 7 7 7 7 6 6 6 6 6 6 6 6 6 6 6 5 5 5 5 5 5
7 7 6 7 7 7 7 7 7 7 7 7 7 7 7 7 7 7 7 6 6 6 6 6 6 6 6 6 5 5 5 5
7 7 6 6 6 7 7 7 7 7 7 7 7 7 7 7 7 7 7 6 6 6 6 6 6 6 6 6 6 5 5 5
7 6 6 6 5 6 6 6 6 6 6 6 6 6 6 6 6 6 6 6 6 6 6 6 6 6 6 6 6 6 6 6
6 6 6 5 5 5 5 6 6 6 6 6 6 6 6 6 6 6 5 5 5 5 5 5 5 5 5 5 5 5 5 5
6 6 5 5 5 5 6 5 5 5 5 5 5 5 5 5 5 5 5 5 5 5 5 5 5 5 5 4 4 4 4 5
6 6 5 5 5 5 5 5 5 5 4 4 4 4 4 4 4 4 4 4 4 4 4 5 5 5 5 4 4 4 4 4
6 5 5 5 5 5 5 4 4 4 4 4 4 4 3 3 3 3 4 4 4 4 4 4 4 4 4 4 4 3 3 3
6 5 5 4 4 4 4 4 4 3 3 3 3 3 3 3 3 3 3 3 3 4 4 4 4 3 3 3 3 3 2 2
6 5 5 4 4 4 4 4 3 3 2 2 2 2 3 3 3 3 3 3 3 3 3 3 2 2 2 2 2 2 2 2
5 5 5 4 4 4 4 3 3 2 2 2 2 2 2 2 3 3 3 2 2 2 2 2 1 1 1 1 0 0 0 1
5 5 4 3 3 3 3 2 2 2 2 1 2 2 2 2 2 2 1 1 1 1 0 0 0 0 0 0 -0 -1 -2 -2
5 4 4 3 3 3 2 2 1 1 1 1 1 1 1 1 1 0 0 -0 -0 -0 -0 -0 -0 -1 -1 -2 -3 -3 -4 -4
5 4 3 2 2 2 1 1 1 0 0 0 0 0 0 -0 -0 -0 -0 -1 -1 -1 -1 -1 -2 -2 -3 -4 -5 -5 -5 -5

GFSFLT2_700_temp_150.txt.gz
Temp
9 8 8 8 8 8 8 8 8 8 8 8 8 8 8 8 8 8 8 8 8 7 7 7 7 7 7 6 6 6 6 6
9 9 8 8 8 8 8 8 8 8 8 8 8 8 8 8 8 8 8 7 7 7 7 7 7 7 7 7 7 6 6 6
9 8 8 8 8 8 8 8 8 8 8 8 8 8 8 8 8 7 7 7 7 7 7 7 7 7 7 7 7 7 6 6
9 8 8 8 8 8 8 8 8 8 8 8 7 7 7 7 7 7 7 7 7 7 7 7 7 6 6 6 6 6 6 6
8 8 8 8 8 9 8 8 8 8 8 8 7 7 7 7 7 7 7 7 7 7 7 6 6 6 6 6 6 6 6 6
8 8 8 8 8 8 8 8 8 8 8 8 7 7 7 6 6 6 6 6 6 6 6 6 6 6 6 6 6 6 5 6
8 7 7 7 7 7 8 8 8 8 7 7 7 7 7 7 7 6 6 6 6 6 6 6 6 6 6 5 5 5 5 5
8 7 7 7 7 7 7 7 7 7 7 7 7 7 7 7 7 7 7 6 6 6 6 6 6 6 6 6 6 5 5 5
7 7 6 6 6 6 7 7 7 7 7 7 7 7 7 7 7 6 6 6 6 6 6 6 6 6 5 6 6 6 6 6
7 7 6 6 6 6 6 6 6 6 6 6 6 6 6 6 6 6 6 6 6 6 6 6 6 6 6 6 6 6 6 6
7 6 6 6 6 6 6 6 6 6 6 6 6 6 5 5 5 5 5 5 5 5 6 5 6 5 5 5 5 5 5 5
6 6 6 6 5 5 6 6 6 6 5 5 5 5 5 5 5 5 5 5 5 5 5 5 5 5 5 5 5 5 5 5
6 6 6 6 5 5 5 5 5 5 5 4 4 4 4 4 4 4 4 4 4 4 4 4 4 4 4 5 5 5 5 5
6 6 6 6 5 5 5 5 5 5 5 4 4 4 4 4 4 4 4 4 4 4 4 4 4 4 4 4 4 4 5 4
6 6 6 5 5 5 5 5 5 5 4 4 3 3 3 3 3 3 3 3 3 3 3 4 4 4 3 3 3 3 2 2
5 5 5 5 5 5 4 4 4 4 4 3 3 3 3 3 3 3 3 3 3 3 3 3 3 3 2 2 2 2 2 2
5 5 5 5 5 4 4 4 4 4 3 3 2 2 2 2 2 2 3 3 3 3 2 2 2 1 1 1 1 1 1 1
5 5 5 4 4 4 4 4 4 3 3 2 2 2 2 2 2 2 2 2 2 2 1 1 1 1 1 1 0 0 -0 -1
5 5 4 4 4 3 3 3 3 3 2 2 2 2 2 2 1 2 2 2 1 1 1 0 0 0 0 -0 -1 -2 -3 -3
5 5 4 3 3 2 2 3 2 2 2 2 1 1 1 1 1 1 1 0 0 0 -0 -0 -0 -0 -1 -1 -2 -3 -4 -4

GFSFLT2_700_temp_156.txt.gz
Temp
10 10 9 9 8 9 8 8 8 8 8 8 8 8 8 8 8 8 8 8 7 8 7 7 7 7 7 7 7 7 6 6
10 10 9 9 8 8 8 8 8 8 8 8 8 8 8 8 8 8 7 7 7 8 7 7 7 7 7 7 7 7 6 6
10 10 9 9 8 8 8 8 8 8 8 8 8 8 8 8 8 8 7 7 7 7 7 7 7 7 7 7 6 6 6 6
10 10 9 9 9 9 8 8 8 8 8 8 8 8 8 8 7 7 7 7 7 7 7 7 7 7 7 6 6 6 6 6
10 9 9 9 9 8 8 8 8 9 9 9 8 8 8 8 7 7 7 7 7 7 6 6 6 6 6 6 6 6 5 5
10 9 9 9 8 8 8 8 9 9 8 8 9 8 8 7 7 7 7 6 6 6 6 6 6 6 6 6 6 6 5 5
9 9 9 8 8 8 8 8 8 8 8 8 8 8 8 7 7 7 7 7 6 6 6 6 6 6 6 5 5 6 5 5
9 9 9 8 8 8 8 8 8 8 8 7 7 7 7 7 7 7 7 7 7 6 6 6 6 6 6 6 6 6 6 5
9 9 8 8 8 8 8 8 8 8 8 7 7 7 7 7 7 7 7 6 6 6 6 6 6 6 6 6 6 6 6 6
9 9 8 8 8 8 8 7 7 8 7 7 7 7 6 6 6 6 6 6 6 6 6 6 6 6 6 6 5 5 5 5
9 9 8 8 8 7 7 7 7 7 7 7 7 6 7 6 6 6 6 6 6 6 6 5 5 5 5 5 5 5 5 5
9 8 8 8 7 7 7 6 6 7 6 6 6 6 6 6 6 6 5 5 5 5 5 5 5 4 4 4 4 4 4 4
8 8 8 7 7 7 6 6 6 6 6 6 6 6 6 6 5 5 5 5 5 5 4 4 4 4 4 4 4 4 4 5
8 8 7 7 7 6 6 6 6 6 6 6 6 6 6 5 5 5 4 4 4 4 4 4 4 4 4 4 4 4 4 3
7 7 7 7 6 6 6 6 6 6 5 5 5 5 5 5 5 4 4 4 4 3 3 4 4 4 4 3 3 3 2 3
6 6 6 6 6 5 5 5 5 5 5 5 5 5 5 5 4 4 4 4 3 3 3 3 3 3 3 3 3 3 2 1
6 5 5 5 5 5 5 5 4 5 5 5 5 5 5 4 4 4 3 3 3 3 3 2 2 2 2 3 2 2 2 1
5 5 4 4 4 4 4 4 4 4 4 4 4 4 4 4 4 3 3 3 2 2 2 2 2 2 2 2 2 2 1 1
4 4 3 4 4 4 3 2 3 3 3 3 3 4 3 4 3 3 3 3 2 2 2 1 2 2 2 1 1 1 1 1
4 4 4 4 4 4 3 2 2 2 2 2 3 3 3 3 3 2 2 2 2 1 1 1 1 1 1 1 0 0 0 0

GFSFLT2_700_temp_159.txt.gz
Temp
11 10 10 9 9 9 9 9 9 9 9 8 8 8 8 8 8 8 8 8 8 7 7 7 7 7 7 7 6 6 5 5
11 10 10 9 9 9 9 9 9 9 9 9 9 9 8 8 8 8 7 7 7 7 7 7 7 7 7 7 7 6 6 6
11 11 10 9 9 9 9 9 9 9 9 9 9 8 8 8 8 8 7 7 7 7 7 7 7 7 7 6 6 6 6 6
11 11 10 10 9 9 9 9 9 9 9 9 9 9 9 8 8 8 7 7 7 7 7 7 7 6 7 6 6 6 6 6
11 10 10 10 9 9 9 9 9 8 8 9 9 9 9 9 8 8 7 7 6 6 6 6 6 6 6 6 6 5 5 6
11 10 10 10 9 9 9 9 9 8 8 9 9 9 9 9 8 8 7 7 7 6 6 6 6 6 6 6 6 5 5 5
10 10 10 9 9 9 9 9 9 9 8 8 8 9 8 8 8 7 7 7 7 7 6 6 6 5 6 5 5 5 5 4
10 9 9 9 9 9 9 8 8 8 8 8 8 8 8 8 8 7 7 7 6 6 6 6 6 6 6 6 6 5 5 4
9 9 9 9 9 9 8 8 8 8 8 8 8 8 8 8 8 7 7 6 6 6 6 6 6 6 6 6 5 5 5 4
9 9 9 8 8 8 8 8 8 7 7 7 7 7 7 7 7 7 7 6 6 6 6 6 6 5 5 5 5 5 5 5
9 8 8 8 8 8 8 8 8 7 7 7 7 7 7 7 7 7 7 6 6 5 5 5 5 5 5 5 4 5 5 5
8 8 8 8 7 7 7 7 7 7 7 6 6 6 6 6 6 7 6 6 6 5 5 5 4 4 4 4 4 4 4 4
8 7 7 7 7 7 7 6 6 6 6 6 6 6 6 6 6 6 6 6 5 5 4 4 4 4 4 4 3 4 4 4
8 8 7 7 7 7 6 6 6 6 6 5 5 6 6 5 6 6 6 5 5 5 4 4 4 3 3 3 3 3 3 3
8 7 7 6 5 5 6 6 6 6 5 5 5 5 5 5 5 5 5 5 5 4 4 4 4 3 3 3 3 3 3 4
7 7 6 6 5 5 5 5 5 5 5 4 5 4 4 5 5 5 5 5 4 4 4 4 4 3 3 3 3 3 3 3
6 6 6 5 5 4 4 4 4 4 4 4 4 4 4 4 4 4 4 4 4 4 3 3 3 3 3 3 2 2 1 1
5 5 4 4 4 4 5 5 4 3 3 4 4 3 3 3 4 4 4 4 3 3 3 3 3 3 2 2 2 2 1 1
3 3 3 4 4 4 4 4 4 4 2 3 3 3 3 3 3 3 3 3 3 3 3 2 2 2 2 2 2 1 1 1
4 3 4 4 4 3 3 4 3 3 3 3 2 2 2 2 3 2 2 2 2 2 2 2 2 2 1 1 1 1 1 0

GFSFLT2_700_temp_162.txt.gz
Temp
12 10 10 9 9 9 9 9 9 9 9 9 9 9 9 9 9 8 8 8 8 7 7 7 7 7 7 6 6 6 6 6
12 11 10 10 9 9 9 9 9 9 9 9 9 9 9 9 8 8 8 7 7 7 7 7 7 7 7 7 6 6 6 6
12 11 10 10 9 9 9 9 9 9 9 9 9 9 8 8 8 8 8 7 7 7 7 7 6 6 6 6 6 6 6 6
11 11 10 10 10 9 9 9 9 8 9 9 8 8 8 8 8 8 8 7 7 7 7 7 6 6 6 6 6 6 6 6
11 11 11 10 10 9 9 9 9 9 8 8 8 8 8 8 8 8 8 7 7 7 6 6 6 6 6 6 6 6 6 6
11 11 11 10 10 9 9 9 9 8 8 8 8 8 8 8 8 8 8 7 7 7 6 6 6 6 6 5 5 5 5 5
10 10 10 10 10 9 9 9 8 8 8 8 8 8 8 8 9 9 8 7 7 7 7 6 6 6 5 5 5 5 5 5
10 10 10 10 9 9 9 8 8 8 8 8 8 8 8 8 8 8 7 7 7 7 7 6 6 5 5 5 5 4 4 5
9 9 9 9 9 9 8 8 8 8 7 7 7 7 7 7 7 7 7 7 7 6 6 6 5 5 5 5 4 3 4 4
9 8 8 8 8 8 8 8 8 7 7 7 7 7 7 7 7 7 7 6 6 6 6 6 5 5 5 4 4 4 4 4
8 8 8 8 7 7 7 7 7 7 7 6 6 6 6 6 6 7 7 6 6 6 6 6 5 5 5 4 4 4 4 4
8 8 8 7 7 7 7 7 7 7 6 6 6 6 6 6 6 6 6 6 6 6 6 5 5 5 4 4 4 3 3 3
9 8 8 7 7 7 7 6 6 6 6 6 6 6 5 5 5 6 6 6 6 6 5 5 5 4 4 4 4 3 4 4
8 8 7 6 6 6 6 6 5 5 6 6 5 5 5 5 5 5 5 5 5 5 5 4 4 4 4 3 4 4 4 4
7 6 6 5 5 5 5 5 5 5 5 4 4 5 5 5 5 5 5 5 5 5 5 4 4 3 3 3 3 4 4 3
6 6 5 5 5 5 5 4 4 5 4 4 4 4 4 4 4 4 4 4 4 4 4 4 4 3 3 3 3 3 3 3
5 5 5 5 4 4 4 4 4 5 5 4 4 4 3 4 4 4 4 4 4 4 4 4 3 3 2 2 2 3 3 3
4 4 4 3 3 4 3 4 4 4 4 4 4 3 2 3 3 3 3 3 4 3 3 3 3 2 2 2 2 2 2 2
2 2 2 3 3 3 3 3 4 4 4 4 3 2 1 2 2 2 2 2 2 2 2 2 2 2 2 2 2 1 1 1
2 2 2 3 3 3 3 3 3 3 3 3 3 2 1 0 1 2 2 2 1 1 1 1 1 1 1 1 1 1 1 0

GFSFLT2_700_temp_165.txt.gz
Temp
12 12 11 10 10 10 9 9 9 9 9 9 9 9 8 9 9 8 8 8 8 7 7 7 7 6 6 6 6 6 6 7
12 12 11 10 9 9 9 9 9 9 9 9 8 8 8 8 8 8 8 8 7 7 7 7 7 7 6 6 6 6 6 6
12 12 11 10 9 9 9 9 9 8 8 8 8 8 8 8 8 8 8 7 7 7 7 7 7 7 6 6 6 6 6 6
11 11 11 11 10 9 9 9 8 8 8 8 8 8 8 8 8 8 8 7 7 7 7 6 6 6 6 6 6 6 6 6
11 11 11 11 10 10 9 9 8 8 8 8 8 8 8 8 8 8 8 7 7 7 7 6 6 6 5 6 6 6 6 5
10 11 11 10 10 10 9 9 8 8 8 8 7 8 8 7 8 8 7 7 7 7 6 6 6 5 5 5 5 5 5 5
10 10 10 10 10 10 9 9 8 8 8 7 7 7 7 7 7 8 7 7 7 7 6 6 6 5 5 5 4 4 4 5
10 10 10 10 10 9 9 8 8 7 7 7 7 7 7 7 7 7 7 7 7 6 6 6 6 6 5 4 3 3 3 3
9 9 9 9 9 9 9 8 8 7 7 7 7 7 7 7 7 7 7 7 7 6 6 6 6 5 5 4 4 3 2 3
9 9 9 8 8 8 8 8 8 8 7 7 7 7 7 7 6 6 6 6 6 6 6 6 5 5 4 5 4 4 3 4
9 9 8 7 7 7 7 7 7 8 7 7 7 7 6 6 6 6 6 5 6 6 5 5 5 5 4 4 4 4 4 4
9 9 8 7 7 7 7 7 7 7 7 7 6 6 6 6 6 6 6 5 5 5 5 5 4 4 4 4 4 4 4 4
8 8 7 6 6 6 6 6 5 5 5 5 5 5 5 5 5 5 5 5 5 5 5 4 4 4 4 4 4 4 4 4
6 6 6 5 5 5 5 5 5 5 5 5 5 4 4 4 5 5 5 5 5 5 5 5 4 4 3 3 3 3 4 4
6 6 5 4 4 3 2 3 3 4 4 4 4 4 4 4 4 4 4 4 4 4 5 4 4 3 3 3 3 4 3 3
6 5 5 4 3 2 1 2 2 3 4 4 4 4 3 3 3 3 4 4 4 4 4 4 4 3 3 3 3 3 3 3
5 4 4 4 2 2 1 2 3 3 3 4 4 4 3 3 3 2 3 3 3 3 3 3 3 3 2 2 2 2 2 2
4 4 2 2 1 1 2 3 3 3 3 3 3 4 3 3 3 2 2 2 2 2 2 3 2 2 2 2 1 1 1 1
2 2 1 1 1 2 1 2 2 2 3 3 3 3 3 3 2 2 1 2 2 2 1 1 2 1 1 1 0 0 0 0
3 2 2 1 1 1 2 2 3 3 3 3 3 3 3 2 2 2 1 1 1 1 1 1 1 1 0 0 0 -0 -0 -0

GFSFLT2_700_temp_168.txt.gz
Temp
12 12 11 11 10 10 10 9 9 9 9 9 9 8 8 8 8 8 8 8 7 7 7 6 6 6 6 6 6 6 7 6
12 12 11 11 10 9 9 9 9 9 8 8 8 8 8 7 7 8 8 7 7 7 7 6 6 6 6 6 6 6 6 6
11 11 11 11 10 9 9 9 8 8 8 8 8 7 7 7 7 8 8 7 7 7 7 6 6 6 6 5 5 6 6 6
11 11 11 11 10 9 9 8 8 8 8 7 7 7 7 7 7 8 8 8 7 7 7 6 6 5 5 5 5 5 5 5
10 10 10 10 10 9 9 8 8 8 7 7 7 7 7 7 7 8 7 7 7 7 7 7 6 6 5 5 5 5 5 5
10 10 10 10 10 10 9 8 8 7 7 7 7 7 7 7 7 7 7 7 7 7 7 7 6 5 5 5 5 5 5 5
10 10 10 10 10 10 9 9 8 7 7 7 7 7 7 7 7 7 7 7 7 7 6 6 6 6 5 4 4 4 4 4
9 9 9 9 9 9 9 8 8 7 7 7 7 7 7 7 7 7 7 7 7 7 6 6 6 5 4 4 3 3 4 4
9 9 9 9 9 9 9 8 7 7 7 7 7 7 7 7 7 7 6 6 6 6 6 6 6 5 4 3 2 2 2 2
9 9 8 8 8 7 7 7 7 7 7 6 6 6 6 6 6 6 6 6 6 6 6 6 5 5 5 3 1 1 1 2
9 8 8 7 6 6 5 6 6 6 6 6 5 5 5 6 6 6 6 5 6 5 5 5 5 5 5 4 1 2 3 3
9 8 7 6 5 5 5 4 5 5 5 5 5 5 5 5 5 5 5 5 5 5 5 5 5 5 4 4 4 3 3 3
10 8 7 6 5 3 3 3 3 3 3 4 4 4 4 5 5 5 4 4 4 5 4 5 4 4 4 4 4 4 4 3
9 7 6 5 5 4 2 2 2 2 3 4 4 3 3 3 3 3 4 4 4 4 4 4 4 4 4 3 3 3 3 4
8 6 6 5 4 4 2 2 1 2 3 3 4 4 4 4 4 3 3 3 3 4 4 4 3 3 3 3 3 4 3 3
6 5 5 4 3 3 3 2 1 0 0 1 2 3 3 4 4 4 3 3 3 3 3 3 3 3 2 2 2 2 2 2
5 5 4 3 3 3 2 1 1 1 0 2 2 3 3 4 4 3 3 3 2 2 2 2 3 2 2 2 1 1 1 1
6 5 4 3 2 1 1 1 1 1 1 1 2 3 3 3 3 3 3 3 2 2 2 2 1 2 2 2 2 1 1 1
5 4 4 3 1 1 1 -0 0 1 1 2 2 2 2 2 2 3 3 3 2 1 1 1 1 1 1 1 1 1 1 1
2 2 2 2 2 1 1 1 2 2 1 2 2 2 2 3 2 2 2 2 2 1 1 1 0 0 0 0 0 0 0 0

GFSFLT2_700_temp_171.txt.gz
Temp
12 11 11 10 10 10 9 9 9 9 9 9 8 8 8 7 7 7 7 7 7 7 7 7 6 6 6 6 6 7 6 6
12 11 11 10 10 10 9 9 9 9 8 8 8 8 8 7 7 7 7 7 7 7 6 6 6 6 6 6 6 6 6 6
11 11 11 11 10 9 9 9 9 8 8 8 8 7 7 7 7 7 7 7 7 7 7 6 6 5 6 5 5 6 6 6
11 11 11 10 10 9 9 8 8 8 8 7 7 7 7 7 7 7 7 7 7 7 7 6 6 5 5 5 5 5 5 5
10 10 10 10 10 9 8 8 8 8 7 7 7 7 7 6 7 7 7 7 7 7 7 7 6 5 5 5 5 4 4 4
10 10 10 10 9 9 8 8 7 7 7 7 7 6 6 7 7 7 7 7 7 7 7 7 7 6 5 5 5 4 4 4
9 9 9 8 8 8 8 8 7 7 6 6 6 6 6 6 7 7 7 7 7 7 7 6 6 6 6 6 5 4 4 4
9 8 7 7 7 7 7 7 7 6 6 6 6 6 6 6 6 6 6 6 6 6 6 6 6 6 6 6 5 4 3 3
9 8 7 7 7 7 7 7 6 6 5 5 5 5 5 6 5 6 6 6 6 6 6 6 6 5 5 5 4 3 3 2
9 9 8 7 7 7 7 7 5 5 5 5 5 5 5 5 5 5 5 5 5 5 5 5 5 5 5 5 4 3 2 2
9 8 7 7 7 7 6 6 5 4 4 4 4 5 5 5 5 5 5 5 5 5 5 5 5 5 5 4 4 3 2 2
10 9 7 6 6 6 5 5 4 4 4 3 3 4 4 4 4 4 4 4 4 4 5 5 5 5 5 4 4 3 4 3
9 9 7 6 5 4 5 5 5 4 2 3 2 3 2 3 3 3 3 4 4 4 4 4 4 4 4 4 4 3 3 3
9 9 7 5 5 4 4 4 3 3 2 2 2 1 1 1 1 2 2 3 3 3 3 4 4 4 4 3 3 3 3 3
8 8 7 5 4 4 3 3 3 2 2 1 1 1 1 1 0 1 3 3 3 3 3 3 3 3 3 3 3 3 3 2
7 7 6 5 4 4 3 3 3 2 1 1 0 0 0 1 1 2 3 3 3 3 2 3 3 3 3 3 2 2 3 2
7 6 5 5 4 4 4 3 2 0 1 1 -0 1 -0 0 2 2 2 2 3 3 2 2 2 2 2 2 2 2 2 2
5 5 5 4 3 3 2 2 2 1 1 2 2 1 1 2 2 2 2 2 3 3 2 1 1 2 2 1 1 1 1 1
4 4 4 4 3 2 3 3 2 1 1 1 1 1 1 1 2 1 2 2 2 3 2 2 1 1 1 0 1 1 1 0
3 2 2 2 2 2 2 2 2 2 2 1 1 1 1 1 1 1 1 1 1 1 1 1 1 0 -0 -0 -0 -0 -1 -1

GFSFLT2_700_temp_174.txt.gz
Temp
12 11 11 11 10 9 9 9 9 9 8 8 8 8 8 8 7 7 7 6 7 6 6 6 6 6 6 6 6 6 6 5
11 11 11 11 10 9 9 9 8 8 8 8 8 8 8 7 7 7 6 6 6 6 6 6 6 6 6 6 6 6 6 6
11 11 11 11 10 9 9 9 8 8 8 8 8 7 7 7 7 7 6 6 6 6 6 6 6 6 6 6 5 5 5 5
11 11 11 10 10 9 8 8 8 8 8 7 7 7 7 6 6 6 6 6 6 6 6 6 6 6 6 6 5 5 5 5
10 10 10 9 10 9 8 8 8 7 7 7 7 6 6 6 6 6 6 6 7 7 7 7 6 6 6 6 5 5 5 5
10 9 9 9 9 9 8 8 7 7 7 6 6 6 6 5 5 6 6 6 6 6 6 6 6 6 6 6 5 5 5 4
10 9 8 8 8 8 8 7 7 7 6 6 5 5 5 5 5 6 6 6 6 6 6 6 6 6 6 5 6 6 5 4
10 8 8 8 7 7 7 7 7 6 5 5 5 5 5 5 5 5 6 6 6 6 6 6 6 6 6 6 6 6 5 4
9 8 7 7 7 7 7 7 7 6 5 5 4 4 4 4 5 5 5 5 5 5 5 5 6 5 5 5 6 4 3 3
10 9 7 7 7 7 7 7 6 6 5 5 4 4 3 4 5 5 5 5 5 5 5 5 5 5 5 5 5 4 3 2
10 9 8 7 7 7 7 6 5 5 5 4 3 2 2 3 4 4 4 4 4 4 4 4 5 5 5 5 5 5 4 2
9 9 9 8 7 7 7 6 5 5 4 4 2 2 1 2 3 3 4 4 4 4 4 4 4 4 4 4 4 4 4 2
9 9 9 8 7 7 6 5 4 3 4 3 3 2 1 1 1 3 3 3 3 3 3 3 3 3 4 4 4 4 4 4
9 9 9 7 6 6 5 4 4 3 3 3 2 2 1 1 1 2 2 3 3 3 2 3 3 3 3 3 3 4 4 4
8 8 8 6 6 5 4 4 4 3 3 3 3 2 2 1 1 0 0 1 2 2 2 3 3 2 3 2 3 3 3 3
7 7 7 6 5 4 4 4 3 2 2 2 3 1 1 1 1 1 0 1 2 2 3 3 2 2 2 2 2 2 2 2
6 6 6 5 4 4 3 3 3 3 3 3 3 2 1 1 1 1 2 2 2 2 3 3 3 2 1 1 1 2 1 1
6 5 5 5 4 4 3 3 3 3 3 3 2 2 2 1 2 2 2 2 2 2 2 2 2 2 2 1 1 0 1 0
5 4 4 4 4 4 3 3 3 3 3 3 3 2 1 1 1 1 1 1 1 1 1 1 1 1 0 -0 -0 -0 -1 -1
4 3 3 3 3 2 2 2 2 2 2 2 2 1 1 1 1 1 1 1 1 1 1 0 0 1 1 -0 -1 -2 -1 -1

GFSFLT2_700_temp_177.txt.gz
Temp
12 12 12 11 11 10 10 10 9 9 8 8 8 8 7 7 7 7 7 7 7 7 7 6 7 6 6 6 6 6 5 4
12 12 11 11 11 10 10 10 9 9 8 8 8 7 7 7 7 6 6 6 6 6 6 6 6 6 6 6 6 6 5 4
11 11 11 11 10 10 10 9 9 8 8 8 8 7 7 7 6 6 6 6 6 6 6 6 6 6 6 6 5 5 5 4
11 11 10 10 10 10 9 8 8 8 8 8 7 7 7 6 6 6 6 5 5 5 6 6 6 6 6 6 5 5 5 4
11 10 10 9 8 9 8 8 8 8 8 7 7 6 6 6 6 6 5 5 5 5 6 6 6 6 4 6 5 5 5 4
11 10 9 8 8 8 8 7 7 7 7 7 6 6 6 5 6 5 5 5 5 5 5 6 6 6 5 5 5 5 5 5
10 10 9 8 8 8 7 7 7 6 6 6 6 5 5 5 5 5 5 5 5 5 5 5 5 5 5 5 5 5 5 5
10 10 9 8 8 8 7 7 7 7 7 6 6 6 5 4 4 4 4 5 5 5 6 5 5 5 4 5 5 5 6 5
10 10 9 9 8 8 8 8 8 7 6 5 5 5 4 4 4 2 2 4 5 5 5 5 5 5 5 5 5 5 5 3
10 10 9 8 8 9 8 8 7 7 6 5 4 4 3 3 3 3 3 4 4 5 5 4 5 5 5 5 5 5 4 3
10 9 9 8 9 8 8 7 7 7 6 6 5 4 3 4 3 2 2 2 3 4 4 4 3 4 4 4 4 4 4 3
9 9 9 9 8 8 7 7 6 6 5 6 5 3 3 3 2 1 1 1 2 3 3 3 4 4 3 4 4 4 4 4
9 9 9 9 8 7 7 7 6 6 5 5 3 3 3 4 2 2 1 1 1 2 2 2 2 3 2 3 3 4 4 3
9 9 9 8 7 7 6 6 6 5 4 3 3 4 3 2 2 1 0 -0 -0 1 2 2 2 2 0 2 3 3 3 3
8 8 8 8 7 6 6 5 4 4 3 3 4 3 3 2 2 2 1 1 0 0 1 1 0 0 0 1 2 2 3 3
8 8 8 7 6 5 5 4 4 3 3 4 3 3 3 2 1 1 1 1 1 1 1 1 0 0 1 2 -0 -0 1 1
7 7 7 6 5 5 4 4 4 4 4 3 3 3 3 2 1 1 1 1 1 1 1 1 1 1 1 1 1 -0 -2 -1
7 6 6 6 5 5 4 4 4 4 3 3 3 2 2 2 2 1 1 1 1 1 1 2 1 1 1 1 0 -0 -0 -1
6 5 5 5 4 4 4 4 3 3 3 3 3 3 3 3 2 2 2 1 1 1 1 1 1 1 1 1 0 -1 -1 -2
4 4 4 4 4 3 3 3 2 2 2 2 2 2 2 2 1 1 1 1 0 0 0 0 0 -0 -0 -0 -0 -1 -2 -2